Irving, TX

7:38 PM CST on February 10, 2016 (GMT -0600)
Dallas-Fort Worth International

Weather History for KDFW - February, 2014

Change the Weather History Date:

Tuesday, February 11, 2014

  Actual Average Record
Temperature  
Mean Temperature 32 °F 49 °F  
Max Temperature 36 °F 60 °F 88 °F (1922)
Min Temperature 28 °F 38 °F 10 °F (1981)
Degree Days  
Heating Degree Days 33 16  
Month to date heating degree days 317 188  
Since 1 July heating degree days 1992 1693  
Cooling Degree Days 0 0  
Month to date cooling degree days 0 0  
Year to date cooling degree days 0 2  
Moisture  
Dew Point 24 °F    
Average Humidity 72    
Maximum Humidity 85    
Minimum Humidity 59    
Precipitation  
Precipitation T in 0.10 in 1.19 in (1977)
Month to date precipitation 0.38 0.95  
Year to date precipitation 0.71 3.08  
Snow  
Snow 0.00 in 0.00 in 11.20 in (2010)
Month to date snowfall 0.7 0.2  
Since 1 July snowfall 2.8 0.8  
Snow Depth 0.00 in    
Sea Level Pressure  
Sea Level Pressure 30.28 in    
Wind  
Wind Speed 12 mph (North)    
Max Wind Speed 21 mph    
Max Gust Speed 24 mph    
Visibility 9 miles    
Events Rain    
T = Trace of Precipitation, MM = Missing Value Source: NWS Daily Summary

Daily Weather History Graph

Daily Weather History Graph

Search for Another Location

Airport or City:

Trip Planner

Search our weather history database for the weather conditions in past years. The results will help you decide how hot, cold, wet, or windy it might be!

Date:

Astronomy

Feb. 11, 2014 Rise Set
Actual Time 7:15 AM CST 6:10 PM CST
Civil Twilight 6:49 AM CST 6:35 PM CST
Nautical Twilight 6:20 AM CST 7:04 PM CST
Astronomical Twilight 5:51 AM CST 7:33 PM CST
Moon 3:35 PM CST 4:48 AM CST
Length of Visible Light 11h 45m
Length of Day
10h 54m
Waxing Gibbous, 91% of the Moon is Illuminated
Feb 11
Waxing Gibbous
Feb 14
Full
Feb 22
Last Quarter
Mar 1
New
Mar 8
First Quarter

Hourly Weather History & Observations

Time (CST) Temp. Windchill Dew Point Humidity Pressure Visibility Wind Dir Wind Speed Gust Speed Precip Events Conditions
12:53 AM 30.0 °F 20.0 °F 27.0 °F 88% 30.30 in 2.0 mi North 12.7 mph - 0.00 in   Light Freezing Drizzle
1:53 AM 30.0 °F 19.5 °F 27.0 °F 88% 30.29 in 2.5 mi NNE 13.8 mph - 0.00 in   Overcast
2:37 AM 30.0 °F 18.7 °F 26.1 °F 85% 30.27 in 2.5 mi NNE 16.1 mph - N/A   Overcast
2:53 AM 30.0 °F 20.5 °F 27.0 °F 88% 30.28 in 3.0 mi NNE 11.5 mph - N/A   Overcast
3:53 AM 30.0 °F 22.4 °F 26.1 °F 85% 30.30 in 7.0 mi North 8.1 mph - N/A   Overcast
4:53 AM 30.0 °F 20.0 °F 25.0 °F 82% 30.29 in 8.0 mi North 12.7 mph - N/A   Overcast
5:53 AM 28.9 °F 17.3 °F 24.1 °F 82% 30.29 in 9.0 mi North 16.1 mph - N/A   Overcast
6:53 AM 28.9 °F 17.3 °F 23.0 °F 78% 30.32 in 8.0 mi North 16.1 mph - N/A   Overcast
7:53 AM 28.0 °F 16.5 °F 21.9 °F 78% 30.34 in 8.0 mi NNE 15.0 mph - N/A   Overcast
8:53 AM 28.0 °F 15.3 °F 21.0 °F 75% 30.35 in 10.0 mi North 18.4 mph - N/A   Overcast
9:53 AM 28.9 °F 16.9 °F 21.9 °F 75% 30.34 in 10.0 mi NNE 17.3 mph - N/A   Overcast
10:53 AM 30.0 °F 18.3 °F 21.9 °F 72% 30.34 in 10.0 mi North 17.3 mph - N/A   Overcast
11:41 AM 30.0 °F 20.0 °F 23.0 °F 75% 30.31 in 9.0 mi NNE 12.7 mph - 0.00 in Rain Light Freezing Rain
11:53 AM 30.0 °F 19.5 °F 23.0 °F 75% 30.31 in 9.0 mi North 13.8 mph - 0.00 in Rain Light Freezing Rain
12:00 PM 30.0 °F 19.5 °F 23.0 °F 75% 30.30 in 9.0 mi North 13.8 mph - 0.00 in   Light Freezing Drizzle
12:15 PM 30.0 °F 20.0 °F 23.0 °F 75% 30.29 in 9.0 mi NNE 12.7 mph - 0.00 in Rain Light Freezing Rain
12:44 PM 30.9 °F 21.2 °F 24.1 °F 76% 30.27 in 10.0 mi North 12.7 mph - 0.00 in   Light Freezing Drizzle
12:53 PM 30.9 °F 22.2 °F 25.0 °F 79% 30.29 in 10.0 mi NNE 10.4 mph - 0.00 in   Light Freezing Drizzle
1:08 PM 30.9 °F 21.7 °F 24.1 °F 76% 30.26 in 10.0 mi NNE 11.5 mph - 0.00 in   Overcast
1:33 PM 33.1 °F 24.9 °F 25.0 °F 72% 30.25 in 10.0 mi North 10.4 mph - 0.00 in   Overcast
1:53 PM 34.0 °F 25.0 °F 25.0 °F 70% 30.25 in 10.0 mi North 12.7 mph - 0.00 in   Mostly Cloudy
2:09 PM 35.1 °F 27.4 °F 26.1 °F 70% 30.25 in 10.0 mi North 10.4 mph - N/A   Mostly Cloudy
2:53 PM 35.1 °F 28.6 °F 24.1 °F 64% 30.26 in 10.0 mi North 8.1 mph - N/A   Overcast
3:53 PM 35.1 °F 29.3 °F 24.1 °F 64% 30.24 in 10.0 mi North 6.9 mph - N/A   Overcast
4:53 PM 35.1 °F 30.1 °F 23.0 °F 61% 30.24 in 10.0 mi NNE 5.8 mph - N/A   Overcast
5:53 PM 35.1 °F 30.1 °F 25.0 °F 67% 30.24 in 10.0 mi NNE 5.8 mph - N/A   Overcast
6:44 PM 34.0 °F 25.0 °F 26.1 °F 73% 30.24 in 10.0 mi North 12.7 mph - N/A   Overcast
6:53 PM 34.0 °F 24.6 °F 26.1 °F 73% 30.25 in 10.0 mi North 13.8 mph - N/A   Overcast
7:09 PM 33.1 °F 23.4 °F 26.1 °F 75% 30.25 in 10.0 mi North 13.8 mph - N/A   Overcast
7:53 PM 33.1 °F 24.4 °F 26.1 °F 75% 30.27 in 10.0 mi North 11.5 mph - N/A   Overcast
8:53 PM 33.1 °F 26.9 °F 25.0 °F 72% 30.28 in 10.0 mi North 6.9 mph - N/A   Overcast
9:53 PM 34.0 °F 26.6 °F 24.1 °F 67% 30.24 in 10.0 mi NNE 9.2 mph - N/A   Overcast
10:53 PM 33.1 °F 26.9 °F 23.0 °F 66% 30.24 in 10.0 mi NNE 6.9 mph - N/A   Overcast
11:53 PM 34.0 °F 25.5 °F 23.0 °F 64% 30.26 in 10.0 mi NNW 11.5 mph - N/A   Overcast